Other Public Products
Issued by NWS Charleston, SC

Current Version | Previous Version | Graphics & Text | Print | Product List | Glossary On
Versions: 1 2 3 4 5 6 7 8 9 10 11 12 13 14 15 16 17 18 19 20 21 22 23 24 25 26 27 28 29 30 31 32 33 34 35 36 37 38 39 40 41 42 43 44 45 46 47 48 49 50
812 FPUS82 KCHS 241013 OPUCHS TEST...KCHS/KSAV Gateway Observations...TEST National Weather Service Charleston SC 600 AM EDT TUE APR 24 2018 NOTE: "fair" indicates few or no clouds below 12,000 feet with no significant weather and/or obstructions to visibility. SCZ050-WAZ558-NCZ071-TXZ119-213-PAZ071-DCZ001-FLZ074-172-MI076- NYZ176-178-MAZ016-IL014-TNZ027-NJZ106-GAZ044-MD014-241100- ...Gateway Observations for Charleston International... CITY SKY/WX TMP DP RH WIND PRES REMARKS Chas Airport CLOUDY 68 67 96 SW5 29.88R FOG Seattle FAIR 50 36 58 N12 30.21F Charlotte LGT RAIN 59 58 96 NE8G21 29.91F Dallas DFW CLEAR 55 51 86 CALM 30.03R Dallas Love CLEAR 57 52 83 SW3 30.04R Philladelphia MOCLDY 42 36 79 E3 30.38S Wash National CLOUDY 55 40 56 E8 30.30F Baltimore CLOUDY 51 39 63 E8 30.31S Miami FAIR 73 73 100 CALM 29.97S Detroit LGT RAIN 53 49 86 S5 30.13F Newark MOCLDY 48 43 82 CALM 30.40S Laguardia FAIR 47 42 83 VRB5 30.40S J F K MOCLDY 42 42 100 E3 30.42R Boston Logan FAIR 43 32 65 SW8 30.40S Ft. Lauderdale FAIR 74 74 100 SW5 29.95S Chicago O`Hare CLOUDY 49 34 56 N7 30.05F Chicago Midway CLOUDY 52 42 69 NE5 30.05F Houston Bush FAIR 58 57 97 CALM 30.03S Houston Hobby FAIR 58 57 97 CALM 30.03R Nashville CLOUDY 57 54 89 N5 29.88S Atlanta FOG 59 59 100 W6 29.84S VSB 1 $$ GAZ044-118-TXZ119-213-NCZ071-DCZ001-MDZ014-506-PAZ021-071-NJZ106- NYZ176-178-MAZ106-OHZ011-021-055-MIZ076-KYZ091-ILZ014-INZ047- MNZ060-ONZ431-241100- ...Gateway Observations for Savannah International... CITY SKY/WX TMP DP RH WIND PRES REMARKS Savannah Arpt FAIR 65 63 93 SW7 29.87R Atlanta FOG 59 59 100 W6 29.84S VSB 1 Charlotte LGT RAIN 59 58 96 NE8G21 29.91F Dallas DFW CLEAR 55 51 86 CALM 30.03R Houston Bush FAIR 58 57 97 CALM 30.03S Wash National CLOUDY 55 40 56 E8 30.30F Wash Dulles CLOUDY 54 40 59 E8 30.28F Baltimore CLOUDY 51 39 63 E8 30.31S Philadelphia MOCLDY 42 36 79 E3 30.38S Newark MOCLDY 48 43 82 CALM 30.40S Laguardia FAIR 47 42 83 VRB5 30.40S J F K MOCLDY 42 42 100 E3 30.42R Boston FAIR 43 32 65 SW8 30.40S Pittsburg CLOUDY 52 43 71 E9 30.16F Akron CLOUDY 56 44 64 SE12 30.13S Cleveland CLOUDY 57 45 64 SE10 30.14F Cincinnati LGT RAIN 52 51 97 E10 29.95F Columbus RAIN 52 51 97 E10 30.03F Detroit LGT RAIN 53 49 86 S5 30.13F Chicago O`Hare CLOUDY 49 34 56 N7 30.05F Minneapolis FAIR 46 40 79 CALM 30.12S Indianapolis CLOUDY 52 49 89 E10 29.97F Toronto Canada MOCLDY 45 30 57 SE3 30.17S $$

USA.gov is the U.S. government's official web portal to all federal, state and local government web resources and services.